Probability
11 12 12 13 12 12 12 12 11 11 12 12 11 11 11 9 6 6 6 5 6 6 6 6 5 4 3 1 0 0 0 0 1 0 0 0 0 0 0 0 0 0 0
11 10 11 11 11 11 11 11 10 10 10 11 12 12 11 9 7 5 4 4 4 5 6 5 4 3 2 1 1 1 0 0 1 0 0 0 0 0 0 0 0 0 0
10 9 10 11 10 10 9 9 8 7 7 9 11 12 11 9 7 5 3 2 3 4 5 4 3 1 2 1 2 3 2 1 1 0 0 0 0 0 0 0 0 0 0
9 9 9 10 10 9 8 7 7 5 5 6 8 10 10 9 7 6 5 3 3 3 3 3 2 1 1 1 1 3 3 2 1 0 0 0 0 0 0 0 0 0 0
9 10 10 9 9 9 8 7 7 7 5 5 7 8 8 7 7 7 7 5 2 1 1 1 1 0 0 0 0 1 2 3 2 1 0 0 0 0 0 0 0 0 0
12 13 12 9 9 10 9 9 9 10 8 6 7 8 7 6 7 7 7 6 4 2 2 2 1 1 1 1 0 0 1 2 3 2 1 1 1 1 1 0 0 0 0
14 15 12 9 9 10 10 11 12 12 10 8 7 7 6 6 7 8 7 6 6 6 5 5 4 4 3 2 1 1 1 2 4 3 2 2 2 2 2 1 1 0 0
14 15 13 10 9 12 13 14 15 13 12 10 9 8 7 7 7 8 7 7 6 6 6 6 6 6 6 5 3 3 3 3 3 3 4 4 3 3 3 3 2 1 1
12 14 14 12 11 15 17 18 17 16 14 12 11 10 9 8 8 9 8 8 7 6 5 6 6 7 7 7 6 6 5 4 4 4 4 4 4 3 3 3 3 3 2
10 13 14 13 13 15 17 18 18 17 16 14 13 11 10 8 8 9 9 8 7 6 5 6 6 6 7 9 9 7 6 6 6 5 4 3 3 4 4 3 3 3 3
8 10 14 15 13 12 14 16 16 16 16 15 13 10 8 7 7 8 8 8 8 7 6 6 7 7 8 9 9 8 7 6 6 5 3 3 3 3 3 3 3 3 3
7 10 14 15 12 10 10 11 12 14 15 14 12 10 8 7 7 7 8 9 10 9 7 7 8 7 7 7 7 8 8 6 6 4 3 2 2 1 1 3 3 3 3
7 10 12 11 9 7 6 6 7 10 12 12 12 11 10 9 8 8 9 11 12 11 10 8 8 7 6 5 5 6 6 5 4 5 3 2 1 0 1 3 3 3 3
7 8 8 7 5 5 4 4 4 6 9 10 11 11 11 10 9 9 9 10 11 11 10 9 8 6 4 4 4 5 4 2 3 4 5 3 1 0 1 2 3 3 3
6 6 6 4 3 2 2 3 4 5 7 9 9 9 9 10 10 9 9 9 8 7 8 8 7 4 4 4 4 4 2 0 1 3 4 4 1 0 1 1 2 2 2
6 6 5 3 1 0 1 3 5 6 6 7 8 8 8 9 10 10 9 7 5 4 6 6 5 4 3 2 2 1 0 0 0 1 2 2 1 0 0 0 1 1 1
3 3 3 1 1 0 0 2 5 6 6 7 7 8 9 9 9 9 7 5 4 4 5 5 4 3 2 1 0 0 0 0 0 0 1 1 0 0 0 0 0 0 0
1 1 1 1 1 0 0 1 3 5 6 6 6 7 8 8 9 8 6 4 3 4 5 4 3 3 2 1 0 0 0 0 0 0 0 0 0 0 0 0 0 0 0
0 0 0 0 0 0 1 1 3 4 4 3 3 4 6 7 8 7 6 4 3 4 4 4 3 3 2 1 0 0 0 0 0 1 1 1 0 0 0 0 0 0 0
0 0 0 0 0 0 1 2 3 3 3 2 2 3 4 6 7 7 6 5 4 3 2 2 2 1 1 0 0 0 0 1 2 2 2 1 1 0 0 0 0 0 0
0 0 0 0 0 0 1 2 2 2 2 2 2 3 3 4 6 6 6 6 4 2 1 1 1 0 0 0 0 0 1 3 4 3 3 2 1 0 0 0 0 0 0
0 0 0 0 0 0 0 1 1 1 1 1 2 3 4 5 5 6 6 5 3 1 0 0 0 0 0 0 0 0 0 2 3 3 2 1 1 0 0 0 0 0 0
0 0 0 0 0 0 0 0 0 0 1 1 2 3 5 6 6 6 5 4 2 1 0 0 0 0 0 0 0 0 0 0 1 1 1 0 0 0 0 0 0 0 0
0 0 1 2 1 1 1 2 1 1 2 2 3 3 4 5 5 4 3 2 1 0 0 0 0 0 0 0 0 0 0 0 0 0 0 0 0 0 0 0 0 0 0
1 1 2 3 3 2 3 3 2 2 3 3 3 3 3 3 2 1 1 1 0 0 0 0 0 0 0 0 0 0 0 0 0 0 0 0 0 0 0 0 0 0 0
2 2 3 3 3 3 3 3 2 3 3 3 3 2 1 1 0 0 0 0 0 0 0 0 0 0 0 0 0 0 0 0 0 0 0 0 0 0 0 0 0 0 0
Wind_Speed
2 3 3 4 4 4 3 4 4 3 4 3 3 3 2 1 1 1 2 2 2 2 2 2 1 2 2 2 2 2 1 1 1 1 1 1 0 0 1 1 1 2 2
3 3 3 4 4 4 3 3 3 4 3 3 3 2 2 2 1 1 1 1 2 2 2 2 2 2 2 2 2 2 2 1 1 1 1 1 2 1 0 0 1 2 1
6 5 4 4 3 3 4 4 3 3 3 3 3 3 2 2 1 0 0 1 1 2 1 2 2 2 2 2 2 2 3 2 1 1 2 1 1 1 1 1 0 0 1
5 4 5 5 5 4 3 3 3 3 3 4 4 4 3 3 2 1 1 1 1 1 2 2 2 2 2 2 2 2 2 2 2 1 1 1 2 1 1 1 1 1 1
5 5 5 5 4 3 3 2 3 2 2 3 4 4 3 2 1 1 1 1 0 1 1 2 2 2 2 2 2 2 2 2 2 2 1 1 1 1 1 1 1 1 1
5 4 4 4 3 2 3 3 3 2 2 3 3 4 4 3 3 2 1 1 0 0 1 2 2 2 2 2 2 2 3 2 2 2 2 2 2 2 2 2 2 2 2
5 5 5 5 4 3 3 3 3 2 2 3 3 3 4 4 4 3 2 1 1 0 1 1 1 1 1 2 2 2 2 3 3 3 2 2 2 2 2 2 1 1 1
5 6 6 5 5 4 4 4 4 3 3 3 3 2 3 3 2 3 3 2 2 2 1 1 1 1 1 2 2 1 2 2 3 3 3 2 2 2 2 3 2 1 1
4 5 5 5 4 4 4 4 4 3 3 3 3 2 3 3 3 3 3 2 2 2 1 1 1 1 1 1 2 1 2 2 2 2 3 2 2 2 2 2 2 3 2
3 3 3 4 3 3 3 3 4 5 4 3 3 3 2 2 3 3 3 2 2 1 1 1 1 1 1 1 2 1 1 2 2 2 2 2 2 2 2 2 2 2 3
3 3 3 3 2 2 3 3 3 3 4 4 3 2 2 2 2 2 3 3 2 2 2 2 2 2 1 1 1 2 2 2 2 2 2 2 2 2 2 2 2 2 3
3 3 3 3 2 2 2 2 3 3 4 4 3 3 3 3 3 3 3 3 3 2 3 2 2 2 2 2 2 2 2 2 2 2 2 2 2 2 2 2 2 2 3
2 2 2 2 2 2 2 2 2 2 3 3 3 3 3 3 3 3 3 3 3 2 2 2 2 2 2 2 2 2 2 2 2 2 2 2 2 2 2 2 2 2 2
2 2 2 2 2 2 2 2 2 2 2 3 3 3 4 4 4 3 3 3 3 2 2 2 3 3 2 2 2 2 2 2 2 2 3 3 3 3 3 3 3 2 2
2 2 2 1 1 1 1 2 2 2 2 3 4 4 4 3 3 3 3 3 2 3 2 2 2 2 2 2 2 2 2 2 1 1 2 2 3 4 4 3 3 3 3
2 2 2 1 1 2 2 2 3 3 3 4 4 3 3 3 3 3 2 2 2 2 2 2 2 2 1 2 3 2 2 2 2 2 2 2 3 3 3 4 4 5 4
2 2 2 3 3 3 3 3 3 2 3 3 3 3 3 4 4 3 2 2 2 2 2 2 2 2 2 2 2 3 2 2 2 2 2 2 2 3 2 2 3 3 4
1 2 2 2 3 2 2 2 2 2 3 3 3 3 3 3 3 3 3 2 2 2 2 2 2 2 2 3 3 3 2 2 2 3 3 3 3 3 3 3 3 3 4
2 2 2 2 1 1 2 2 2 2 2 2 2 3 3 3 3 3 3 2 2 2 2 2 2 2 2 2 3 3 2 2 3 3 3 3 3 3 3 3 3 3 3
0 0 0 1 0 0 2 3 2 1 1 2 2 2 2 3 3 3 2 2 2 2 2 1 1 2 2 2 2 3 2 2 2 2 2 2 3 3 2 3 3 4 4
1 2 2 1 1 1 2 2 2 1 2 1 1 1 2 2 3 2 2 2 2 1 1 1 1 1 2 2 2 3 2 3 2 1 1 2 2 3 2 3 3 5 4
2 2 2 2 2 2 2 1 0 2 1 1 1 0 1 1 1 2 2 2 2 2 1 0 1 1 1 1 2 3 3 3 2 2 2 2 2 2 2 2 4 4 2
2 2 2 2 2 2 2 1 2 1 1 1 1 0 1 1 1 2 2 2 2 1 1 1 1 2 1 1 2 3 3 3 2 2 2 2 2 2 1 2 3 2 1
1 1 2 2 2 2 1 0 1 1 1 1 1 1 1 1 1 1 1 2 2 2 2 2 2 2 2 1 1 1 1 1 2 2 1 2 2 1 1 2 1 1 1
1 1 2 1 0 1 1 1 1 1 2 1 1 1 1 1 1 1 0 1 2 3 3 3 2 2 2 3 2 2 2 2 2 1 1 0 0 1 1 1 1 1 1
1 1 1 1 0 0 1 1 1 2 2 2 1 1 1 1 1 1 1 2 1 1 1 3 3 2 3 3 1 1 2 2 2 2 1 1 1 1 2 2 2 1 1
Wind_Direction
163 109 112 118 117 113 123 136 136 144 143 145 151 152 176 172 171 173 162 157 159 161 158 167 159 153 151 160 161 163 143 108 106 82 4 351 12 175 215 191 197 215 207
122 121 125 124 130 139 140 143 152 158 155 159 156 148 145 149 161 171 142 158 167 177 179 169 170 170 154 146 157 153 153 138 126 125 91 358 353 354 341 186 210 226 199
169 165 163 154 146 153 165 163 169 158 153 136 120 109 94 81 100 141 184 216 184 174 179 176 171 170 165 174 182 173 164 172 166 143 151 152 234 315 342 333 287 251 202
164 165 169 174 177 178 169 160 159 150 140 139 144 149 159 171 189 186 190 182 167 178 183 177 172 172 173 176 187 172 170 164 183 179 157 154 153 160 319 326 314 273 234
174 176 179 184 177 165 156 157 144 130 124 134 151 153 157 168 147 120 116 121 146 165 172 173 166 164 172 175 171 163 171 173 177 177 160 145 116 146 173 259 299 305 272
182 175 169 153 141 146 155 149 139 133 132 137 144 157 161 156 139 139 150 146 59 101 178 166 165 172 174 174 179 177 180 191 185 184 172 165 167 183 178 210 242 261 271
180 172 166 163 161 162 175 159 147 145 140 140 145 171 177 168 171 175 177 178 184 241 249 183 177 184 193 187 178 176 190 191 190 197 199 195 199 177 168 177 213 244 277
186 183 181 176 173 173 173 172 170 171 162 159 169 172 176 175 183 182 179 192 207 219 217 190 190 195 195 191 174 178 195 188 201 207 203 201 211 189 182 177 171 214 278
189 186 180 176 175 181 185 181 179 180 179 179 173 175 178 180 183 186 182 197 206 200 175 172 191 223 203 191 173 190 202 192 202 209 205 206 209 197 198 184 179 181 224
187 175 175 177 181 191 185 172 179 189 190 186 187 187 190 194 186 171 185 196 198 195 182 187 191 207 213 193 177 193 202 186 206 199 195 209 211 198 193 190 190 192 198
186 179 181 176 171 176 170 175 185 190 188 186 185 184 194 187 186 184 190 189 185 188 204 210 199 200 202 192 176 198 194 198 212 209 200 211 198 194 198 187 186 197 195
179 169 161 146 152 164 171 184 191 197 199 188 182 185 196 189 191 194 199 191 189 198 213 212 213 214 204 191 190 206 206 205 211 216 207 219 199 199 208 198 202 206 204
153 143 138 148 161 160 173 198 207 213 207 187 184 187 197 196 207 204 202 198 195 199 217 202 214 229 219 204 201 194 198 204 212 220 218 227 205 214 218 211 212 214 205
154 152 156 166 168 163 171 195 221 217 206 188 185 195 206 207 212 206 199 199 195 193 206 209 218 223 217 210 208 190 191 198 199 217 230 229 218 222 222 219 213 200 197
150 163 171 173 159 166 208 221 224 219 203 193 197 207 210 201 195 198 202 199 195 204 211 214 218 212 205 212 199 192 191 182 191 219 239 243 239 230 222 219 211 199 203
179 179 181 197 217 217 226 236 238 223 197 195 205 206 198 195 196 198 193 191 191 200 204 209 209 204 220 201 190 181 178 186 196 228 253 251 239 242 228 222 212 201 205
183 197 212 216 223 221 218 224 235 218 191 198 203 200 196 199 202 196 181 197 200 196 205 198 186 202 224 196 186 184 180 201 214 226 243 258 253 240 237 240 241 232 231
190 222 235 236 236 230 223 225 215 189 191 197 200 196 194 203 202 185 188 201 190 186 194 198 197 195 220 201 200 197 194 212 233 237 237 243 265 256 236 233 247 255 252
209 222 234 233 234 225 201 170 168 168 175 198 208 206 193 190 190 193 199 195 175 180 185 189 191 197 238 219 207 188 188 217 246 253 247 236 252 263 238 216 240 264 272
150 141 52 64 125 222 135 129 142 145 209 227 221 196 178 177 186 195 187 177 172 184 172 175 194 212 235 231 211 190 187 215 247 271 278 260 260 266 229 217 226 252 267
52 71 84 70 7 53 110 125 129 204 243 255 209 153 161 178 178 169 164 153 147 142 140 170 224 229 238 240 223 196 187 202 221 248 281 291 281 265 242 221 228 246 265
60 70 78 47 26 52 93 95 291 277 325 53 75 130 156 170 148 143 145 145 142 142 159 189 287 275 257 243 234 214 212 205 207 238 262 278 283 273 263 241 253 259 262
76 73 84 57 31 45 89 97 318 353 46 58 60 82 90 84 112 140 149 147 147 165 208 216 244 277 283 251 232 224 225 214 210 237 263 287 296 274 267 275 275 255 222
83 83 89 75 25 10 14 278 331 32 75 64 46 62 83 71 73 120 151 166 176 185 204 212 229 254 266 264 258 227 208 209 219 243 274 297 309 310 301 304 291 248 226
129 114 114 126 312 1 358 350 20 72 75 70 53 51 60 89 78 75 129 204 220 207 202 215 217 227 253 255 232 209 204 197 199 173 165 227 253 291 301 310 308 295 261
135 112 106 124 242 11 2 1 30 98 102 80 57 47 35 28 74 84 41 31 33 24 213 219 218 241 248 277 268 209 197 190 167 141 180 232 248 262 275 291 304 298 280